Skip Page Navigation
NASA JPL Caltech
NASA Logo - Jet Propulsion Laboratory + View the NASA Portal
+ Center for Near-Earth Object Studies
JPL Home Earth Solar System Stars & Galaxies Technology
JPL Solar System Dynamics
BODIES ORBITS EPHEMERIDES TOOLS PHYSICAL DATA DISCOVERY FAQ SITE MAP
IMPORTANT: The SSD Announcement email list is now available. Major changes are coming in the near future, including possible hostname and/or URL changes. To be notified of such changes, subscribe to this email list.

Please visit this page for more details.


JPL Small-Body Database Browser
Search: [ help ]  
48226 (2001 KK56)
Classification: Main-belt Asteroid          SPK-ID: 2048226
Ephemeris | Orbit Diagram | Orbital Elements | Mission Design | Physical Parameters | Discovery Circumstances | Close-Approach Data ]

[ show orbit diagram ]
Orbital Elements at Epoch 2458600.5 (2019-Apr-27.0) TDB
Reference: JPL 24 (heliocentric ecliptic J2000)
 Element Value Uncertainty (1-sigma)   Units 
e .1916827514054999 4.6292e-08  
a 2.688449792194854 1.6472e-08 au
q 2.1731203390114 1.2602e-07 au
i 14.79979596034889 6.1445e-06 deg
node 204.3907433340736 1.8986e-05 deg
peri 315.8359171189882 2.439e-05 deg
M 96.0729851551885 1.4546e-05 deg
tp 2458170.815085402219
(2018-Feb-21.31508540)
6.4699e-05 TDB
period 1610.094336148014
4.41
1.4797e-05
4.051e-08
d
yr
n .2235893835023749 2.0549e-09 deg/d
Q 3.203779245378309 1.9629e-08 au
  Orbit Determination Parameters
   # obs. used (total)      701  
   data-arc span      8619 days (23.60 yr)  
   first obs. used      1994-10-14  
   last obs. used      2018-05-20  
   planetary ephem.      DE431  
   SB-pert. ephem.      SB431-N16  
   condition code      0  
   norm. resid. RMS      .55188  
   source      ORB  
   producer      Otto Matic  
   solution date      2018-May-31 14:48:02  

Additional Information
 Earth MOID = 1.20372 au 
 Jupiter MOID = 1.87013 au 
 T_jup = 3.300 
[ show covariance matrix ]

Ephemeris | Orbit Diagram | Orbital Elements | Mission Design | Physical Parameters | Discovery Circumstances | Close-Approach Data ]

Physical Parameter Table
Parameter Symbol Value Units Sigma Reference Notes
absolute magnitude H 14.9   n/a MPO436120  

48226 (2001 KK56)          Discovered 2001-May-22 by LINEAR at Socorro
Reference: 20020921/Numbers.arcLast Updated: 2004-04-19

[ show close-approach data ]
Alternate Designations
 2001 KK56 = 1996 HH2 
Ephemeris | Orbit Diagram | Orbital Elements | Mission Design | Physical Parameters | Discovery Circumstances | Close-Approach Data ]
ABOUT SSD CREDITS/AWARDS PRIVACY/COPYRIGHT GLOSSARY LINKS
FirstGov
(server date/time)  
NASA Home Page
Site Manager:   Ryan S. Park
Webmaster  Alan B. Chamberlin